User: anonymous   Login
Location: Fort Wayne
(41.1310°N, 85.1290°W)
Time: 00:49:42
(UTC-05:00)
Language:

BREEZE-M DEB (TANK) - Orbit

View from above orbital plane
View from above orbital plane
View from above satellite
View from above satellite

Ground track
Ground track

The orbit data is extracted from the following two-line orbital elements,

1 27821U 03024B   17020.14581664  .00004138  00000-0  37966-3 0  9994
2 27821  49.6160  47.6405 4950324 276.7608  31.5217  5.74761168271922
Epoch (UTC): 20 January 2017 03:29:58
Eccentricity: 0.4950324
inclination: 49.6160°
perigee height: 269 km
apogee height: 13303 km
right ascension of ascending node: 47.6405°
argument of perigee: 276.7608°
revolutions per day: 5.74761168
mean anomaly at epoch: 31.5217°
orbit number at epoch: 27192

The dashed part of the orbit path shows where the satellite is in the earth's shadow,  

DLR